Sacramento, CA

5:17 PM PST on February 27, 2017 (GMT -0800)
Sacramento Executive

Weather History for KSAC - May, 2013

Change the Weather History Date:

Wednesday, May 15, 2013

  Actual Average Record
Temperature  
Mean Temperature 66 °F -  
Max Temperature 78 °F 80 °F 99 °F (2008)
Min Temperature 53 °F 51 °F 42 °F (1999)
Degree Days  
Heating Degree Days 0    
Cooling Degree Days 1    
Growing Degree Days 15 (Base 50)    
Moisture  
Dew Point 46 °F    
Average Humidity 51    
Maximum Humidity 71    
Minimum Humidity 31    
Precipitation  
Precipitation 0.00 in 0.02 in 0.30 in (2000)
Month to date precipitation 0.23 0.38  
Year to date precipitation 3.62 11.39  
Since 1 July precipitation 14.91  
Sea Level Pressure  
Sea Level Pressure 29.96 in    
Wind  
Wind Speed 8 mph (SSW)    
Max Wind Speed 15 mph    
Max Gust Speed 21 mph    
Visibility 10 miles    
Events      
T = Trace of Precipitation, MM = Missing Value Source: NWS Daily Summary

Daily Weather History Graph

Daily Weather History Graph

Search for Another Location

Airport or City:

Trip Planner

Search our weather history database for the weather conditions in past years. The results will help you decide how hot, cold, wet, or windy it might be!

Date:

Astronomy

May. 15, 2013 Rise Set
Actual Time 5:54 AM PDT 8:11 PM PDT
Civil Twilight 5:24 AM PDT 8:40 PM PDT
Nautical Twilight 4:47 AM PDT 9:17 PM PDT
Astronomical Twilight 4:07 AM PDT 9:58 PM PDT
Moon 10:34 AM PDT (5/15) 12:01 AM PDT (5/15)
Length of Visible Light 15h 16m
Length of Day
14h 16m
Waxing Crescent, 28% of the Moon is Illuminated
May 15
Waxing Crescent
May 17
First Quarter
May 24
Full
May 31
Last Quarter
Jun 8
New

Hourly Weather History & Observations

Time (PDT) Temp. Dew Point Humidity Pressure Visibility Wind Dir Wind Speed Gust Speed Precip Events Conditions
12:53 AM 59.0 °F 45.0 °F 60% 29.92 in 10.0 mi South 5.8 mph - N/A   Clear
1:53 AM 57.9 °F 45.0 °F 62% 29.91 in 10.0 mi South 5.8 mph - N/A   Clear
2:53 AM 57.0 °F 44.1 °F 62% 29.91 in 10.0 mi South 6.9 mph 16.1 mph N/A   Clear
3:53 AM 55.0 °F 45.0 °F 69% 29.93 in 10.0 mi South 8.1 mph - N/A   Clear
4:53 AM 54.0 °F 45.0 °F 72% 29.94 in 10.0 mi South 6.9 mph - N/A   Clear
5:53 AM 53.1 °F 44.1 °F 71% 29.95 in 10.0 mi SSE 4.6 mph - N/A   Clear
6:53 AM 54.0 °F 45.0 °F 72% 29.97 in 10.0 mi South 6.9 mph - N/A   Clear
7:53 AM 57.9 °F 45.0 °F 62% 29.99 in 10.0 mi South 8.1 mph - N/A   Clear
8:53 AM 60.1 °F 45.0 °F 57% 29.99 in 10.0 mi SSW 11.5 mph 17.3 mph N/A   Clear
9:53 AM 64.0 °F 45.0 °F 50% 30.00 in 10.0 mi SSW 10.4 mph 16.1 mph N/A   Clear
10:53 AM 68.0 °F 46.0 °F 45% 30.00 in 10.0 mi SSW 10.4 mph 17.3 mph N/A   Clear
11:53 AM 70.0 °F 44.1 °F 39% 30.00 in 10.0 mi South 10.4 mph - N/A   Clear
12:53 PM 72.0 °F 43.0 °F 35% 29.99 in 10.0 mi SW 8.1 mph - N/A   Clear
1:53 PM 73.0 °F 44.1 °F 35% 29.99 in 10.0 mi SSW 9.2 mph - N/A   Clear
2:53 PM 75.0 °F 46.0 °F 36% 29.97 in 10.0 mi SW 6.9 mph 17.3 mph N/A   Clear
3:53 PM 75.0 °F 46.0 °F 36% 29.96 in 10.0 mi SSW 10.4 mph 18.4 mph N/A   Clear
4:53 PM 77.0 °F 45.0 °F 32% 29.94 in 10.0 mi SW 11.5 mph 18.4 mph N/A   Clear
5:53 PM 75.9 °F 46.9 °F 36% 29.94 in 10.0 mi SW 10.4 mph 19.6 mph N/A   Clear
6:53 PM 72.0 °F 46.9 °F 41% 29.93 in 10.0 mi South 9.2 mph - N/A   Clear
7:53 PM 66.9 °F 46.9 °F 49% 29.93 in 10.0 mi South 6.9 mph - N/A   Clear
8:53 PM 64.0 °F 48.0 °F 56% 29.94 in 10.0 mi South 5.8 mph - N/A   Clear
9:53 PM 62.1 °F 46.9 °F 58% 29.95 in 10.0 mi SSW 8.1 mph - N/A   Clear
10:53 PM 61.0 °F 48.0 °F 62% 29.94 in 10.0 mi Variable 6.9 mph - N/A   Clear
11:53 PM 59.0 °F 46.9 °F 64% 29.95 in 10.0 mi South 6.9 mph - N/A   Clear